TimeCST,TemperatureF,Dew PointF,Humidity,Sea Level PressureIn,VisibilityMPH,Wind Direction,Wind SpeedMPH,Gust SpeedMPH,PrecipitationIn,Events,Conditions,WindDirDegrees,DateUTC
12:52 AM,44.1,32.0,63,30.13,10.0,South,13.8,-,N/A,,Clear,190,2013-01-19 06:52:00
1:52 AM,44.1,33.1,65,30.13,10.0,SSW,16.1,-,N/A,,Clear,200,2013-01-19 07:52:00
2:52 AM,43.0,33.1,68,30.12,10.0,South,13.8,-,N/A,,Clear,190,2013-01-19 08:52:00
3:52 AM,42.1,33.1,70,30.11,10.0,South,13.8,-,N/A,,Clear,190,2013-01-19 09:52:00
4:52 AM,42.1,33.1,70,30.10,10.0,South,11.5,-,N/A,,Clear,190,2013-01-19 10:52:00
5:52 AM,41.0,32.0,70,30.10,10.0,South,10.4,-,N/A,,Clear,190,2013-01-19 11:52:00
6:52 AM,39.0,32.0,76,30.11,10.0,SSW,10.4,-,N/A,,Clear,200,2013-01-19 12:52:00
7:52 AM,37.9,32.0,79,30.12,10.0,South,11.5,-,N/A,,Clear,190,2013-01-19 13:52:00
8:52 AM,43.0,34.0,71,30.13,10.0,SSW,13.8,-,N/A,,Clear,200,2013-01-19 14:52:00
9:52 AM,46.9,34.0,61,30.14,10.0,SSW,13.8,-,N/A,,Clear,200,2013-01-19 15:52:00
10:52 AM,54.0,34.0,47,30.15,10.0,SW,13.8,21.9,N/A,,Clear,220,2013-01-19 16:52:00
11:52 AM,57.9,33.1,39,30.12,10.0,SW,11.5,-,N/A,,Clear,230,2013-01-19 17:52:00
12:52 PM,62.1,33.1,34,30.08,10.0,SW,12.7,-,N/A,,Clear,220,2013-01-19 18:52:00
1:52 PM,64.0,32.0,30,30.06,10.0,SW,9.2,-,N/A,,Clear,230,2013-01-19 19:52:00
3:52 PM,64.9,32.0,29,30.07,10.0,WSW,9.2,-,N/A,,Clear,250,2013-01-19 21:52:00
4:52 PM,63.0,32.0,31,30.10,10.0,WSW,6.9,-,N/A,,Clear,250,2013-01-19 22:52:00
5:52 PM,55.9,30.9,39,30.12,10.0,SW,3.5,-,N/A,,Clear,230,2013-01-19 23:52:00
6:52 PM,55.9,32.0,40,30.14,10.0,WSW,3.5,-,N/A,,Clear,250,2013-01-20 00:52:00
7:52 PM,50.0,30.9,48,30.17,10.0,Calm,Calm,-,N/A,,Clear,0,2013-01-20 01:52:00
8:52 PM,45.0,30.9,58,30.19,10.0,WNW,3.5,-,N/A,,Clear,300,2013-01-20 02:52:00
9:52 PM,39.0,30.0,70,30.22,10.0,NNW,8.1,-,N/A,,Clear,330,2013-01-20 03:52:00
10:52 PM,39.0,28.0,65,30.23,10.0,NNW,6.9,-,N/A,,Clear,340,2013-01-20 04:52:00
11:52 PM,37.0,26.1,65,30.24,10.0,North,4.6,-,N/A,,Clear,10,2013-01-20 05:52:00